Location: Ferintosh
(52.7647°N, 112.9692°W)
Time: 14:09:12
(UTC+00:00)

Transit 2A Rocket - Pass Details

Date: 28 May 2024
Orbit: 583 x 910 km, 66.7° (Epoch: 22 June)

Event Time Altitude Azimuth Distance (km) Brightness Sun altitude
Rises 14:17:38 0° 299° (WNW) 3,247 7.8 24.3°
Reaches altitude 10° 14:20:38 10° 316° (NW) 2,382 7.3 24.7°
Maximum altitude 14:24:37 20° 3° (N) 1,860 7.2 25.3°
Drops below altitude 10° 14:28:49 10° 49° (NE) 2,522 8.6 26.0°
Sets 14:32:07 0° 66° (ENE) 3,501 9.5 26.5°
